Location: Lahr
(48.3404°N, 7.8689°E)
Time: 18:21:11
(UTC+00:00)

Daily predictions for brighter satellites

Satellite Brightness Start Highest point End
(mag) Time Altitude Azimuth Time Altitude Azimuth Time Altitude Azimuth
S3M 4.1 20:05:19 10° S 20:11:27 64° E 20:17:32 10° NNE
SL-16 R/B 4.1 20:08:51 10° WSW 20:14:05 37° NW 20:19:22 10° NNE
USA 245 4.0 20:09:10 10° SSE 20:14:14 59° ENE 20:18:21 10° N
Cosmos 1626 4.1 20:11:24 10° SW 20:14:41 31° WNW 20:18:00 10° N
MetOp-B 4.2 20:11:34 10° SSE 20:16:56 87° ENE 20:22:19 10° NNW
SPOT 5 3.3 20:13:28 10° SE 20:17:43 42° ENE 20:21:50 10° N
Meteor 2-5 Rocket 4.3 20:13:24 10° SSE 20:18:26 38° E 20:23:31 10° NNE
SPOT 1/Viking Rocket 4.0 20:16:22 10° S 20:21:28 64° WSW 20:26:37 10° NNW
Cosmos 1271 Rocket 4.4 20:19:33 10° NNE 20:22:43 22° ENE 20:25:51 10° ESE
Cosmos 1300 2.8 20:20:39 10° NNW 20:24:27 77° W 20:28:14 10° S
Cosmos 1025 Rocket 3.7 20:21:14 10° SSE 20:25:07 35° E 20:29:02 10° NNE
ERS-1 Rocket 3.4 20:24:57 10° SE 20:29:49 51° ENE 20:34:43 10° N
Cosmos 1140 Rocket 3.5 20:27:22 10° NNW 20:32:37 87° ENE 20:37:48 10° SSE
Cosmos 1953 3.6 20:31:31 10° NNW 20:35:11 37° W 20:38:50 10° SSW
Cosmos 1943 3.5 20:31:50 10° SSW 20:37:30 75° WNW 20:43:11 10° NNE
Cosmos 1745 Rocket 4.3 20:33:10 10° NNW 20:39:16 69° W 20:45:21 10° S
CZ-2C R/B 4.3 20:36:59 10° NNE 20:41:21 39° E 20:45:36 10° SSE
Cosmos 1603 3.9 20:35:46 10° SSW 20:41:28 79° WNW 20:47:15 10° NNE
Lacrosse 5 2.8 20:37:32 10° NW 20:42:29 46° NNE 20:47:24 10° E
Cosmos 1975 Rocket 3.1 20:41:19 10° S 20:45:46 71° E 20:50:11 10° NNE
H-2A R/B 3.9 20:43:11 10° N 20:47:06 34° WNW 20:51:05 10° SW
Helios 1A Rocket 2.9 20:43:49 11° SSE 20:47:44 80° ENE 20:51:50 10° NNW
Ariane Rocket 4.0 20:44:18 10° S 20:49:08 43° W 20:54:00 10° NNW
Cosmos 1954 Rocket 4.4 20:44:29 10° NNW 20:49:42 54° ENE 20:54:15 13° SE
CARTOSAT-1 4.3 20:45:31 10° S 20:49:43 51° W 20:53:57 10° NNW
Resurs 01 Rocket 3.6 20:50:05 10° SSW 20:53:44 25° W 20:57:26 10° NW
Lacrosse 4 Rocket 3.0 20:53:47 10° WSW 20:57:40 38° NW 21:01:30 10° NNE
Tiangong 2.5 20:56:34 10° SW 20:59:04 21° S 21:00:12 18° SE
Cosmos 1544 Rocket 3.6 20:59:52 10° N 21:04:12 68° E 21:07:38 16° SSE
FALCON 9 DEB 2.9 21:03:15 10° WSW 21:06:31 83° SSE 21:09:48 10° ENE
Terra 1.8 21:02:52 14° SSE 21:07:00 85° ENE 21:11:48 10° NNW
SL-8 R/B 3.7 21:03:42 10° WSW 21:08:31 86° S 21:13:23 10° E
USA 267 3.2 21:02:56 10° ENE 21:09:28 67° SE 21:15:58 10° SW
Cosmos 1980 Rocket 4.5 21:06:55 10° N 21:10:32 17° NE 21:14:08 10° ENE
Cosmos 1455 2.1 21:08:11 10° N 21:11:59 74° E 21:14:42 18° SSE
Meteor 1-24 Rocket 3.6 21:07:04 10° S 21:12:22 88° ESE 21:17:47 10° NNE
Cosmos 2369 Rocket 4.4 21:09:30 10° WNW 21:13:03 17° W 21:16:35 10° SW
Cosmos 2315 Rocket 4.2 21:07:12 10° SSW 21:13:33 79° W 21:19:54 10° N
Cosmos 1697 Rocket 4.2 21:10:53 10° NNW 21:15:38 27° NE 21:20:19 10° ESE
NOSS 2-1 (C) 4.2 21:12:53 10° NW 21:17:10 63° NE 21:22:11 14° SE
Cosmos 1371 Rocket 4.0 21:13:08 10° SSW 21:18:21 85° ESE 21:23:40 10° NNE
RESURS DK-1 4.2 21:16:24 10° N 21:19:42 22° NE 21:23:00 10° E
Spot 2 Rocket 4.1 21:15:27 11° S 21:20:16 53° W 21:25:17 10° NNW
CZ-4B R/B 4.5 21:25:50 10° NW 21:26:27 10° WNW 21:27:04 10° WNW
ARIANE 5 R/B 2.7 21:23:37 18° S 21:27:00 81° WSW 21:31:29 10° NNW
NOSS 2-1 (D) 4.1 21:23:11 10° NW 21:27:34 74° NE 21:32:17 17° SE
Lacrosse 5 rocket 1.2 21:25:14 10° NW 21:29:07 85° SW 21:31:47 21° SE
ASTEX 1 4.4 21:24:52 10° NNE 21:29:20 32° E 21:32:06 19° SE
Cosmos 2084 3.4 21:26:52 11° SSW 21:30:19 46° SE 21:34:02 10° NE
Cosmos 2074 Rocket 4.0 21:31:03 10° N 21:37:23 81° E 21:42:02 19° SSE
ATLAS 2AS CENTAUR R/B 2.7 21:32:45 10° NW 21:39:57 83° SW 21:44:51 20° SSE
Cosmos 1624 Rocket 4.3 21:34:57 10° SSW 21:40:11 70° WNW 21:45:25 10° NNE
Cosmos 1656 3.8 21:37:43 10° NNW 21:43:10 69° ENE 21:46:54 21° SE
GP-B 4.3 21:39:40 10° NNE 21:43:35 29° E 21:45:39 20° SE
USA 234 3.3 21:38:51 16° SE 21:44:22 81° SW 21:50:58 10° NW
Cosmos 1833 Rocket 3.7 21:44:37 21° SE 21:47:03 29° ESE 21:51:48 10° NE
Cosmos 2154 Rocket 4.0 21:50:27 10° N 21:56:43 80° E 22:00:52 23° SSE
Cosmos 1271 Rocket 4.0 21:55:04 10° NNW 21:58:43 35° W 22:01:16 17° SSW
Nadezhda 1 Rocket 4.0 21:54:38 21° S 21:58:50 68° E 22:04:53 10° NNE
Cosmos 2056 Rocket 4.4 21:54:46 10° SW 21:59:59 51° WNW 22:05:17 10° NNE
Cosmos 2082 Rocket 3.9 21:59:42 15° ESE 22:01:21 16° E 22:04:47 10° ENE
Cosmos 1741 Rocket 4.1 21:58:33 10° NNW 22:03:54 78° ENE 22:07:02 25° SSE
Cosmos 1610 Rocket 4.5 21:58:26 10° N 22:04:39 82° E 22:08:40 24° SSE
Cosmos 2344 4.4 22:00:08 10° NW 22:08:44 70° NE 22:20:41 10° SE
Cosmos 1536 Rocket 4.4 22:13:47 15° SW 22:17:06 46° WNW 22:21:18 10° N
Cosmos 1607 4.4 22:11:45 10° SW 22:17:56 63° NW 22:24:05 10° NE
Cosmos 968 Rocket 4.4 22:20:13 10° NNW 22:25:08 41° ENE 22:28:30 19° ESE
Cosmos 1606 Rocket 3.5 22:21:11 10° NNW 22:25:32 80° W 22:27:26 33° S
Lacrosse 5 2.0 22:20:36 10° WNW 22:25:37 57° SW 22:27:56 30° SSE
H-2A R/B 4.1 22:22:00 10° NNE 22:25:58 39° E 22:27:16 31° SE
NOSS 2-1 (E) 4.5 22:21:35 10° NW 22:26:11 52° SW 22:29:25 26° S
COSMOS 2406 4.0 22:25:00 26° SSE 22:27:18 36° ESE 22:32:31 10° NE
Cosmos 724 4.4 22:25:26 10° SW 22:31:15 77° NW 22:37:04 10° NE
Meteor 1-11 4.5 22:30:33 28° SSE 22:33:22 54° E 22:38:49 10° NNE
SL-8 Rocket 4.2 22:29:41 10° N 22:35:56 64° ENE 22:39:30 26° SSE
TSX-5 4.3 22:33:04 20° SW 22:36:06 80° WNW 22:41:43 10° NNE
Cosmos 1850 Rocket 4.3 22:31:26 10° NNW 22:36:33 56° WSW 22:39:02 29° S
Cosmos 2369 4.2 22:31:44 10° NNW 22:37:23 55° ENE 22:41:14 20° SE
SJ 16-02 4.3 22:38:12 10° NE 22:38:25 10° NE 22:38:38 10° NE
Cosmos 1328 3.8 22:37:12 33° SSW 22:38:54 77° W 22:42:58 10° N
Cosmos 2228 4.0 22:35:16 10° NNW 22:39:10 37° W 22:41:10 23° SW
Cosmos 2218 Rocket 4.4 22:33:11 10° N 22:39:32 59° ENE 22:43:17 25° SSE
Meteor 1-21 Rocket 4.4 22:35:49 21° SSW 22:39:38 66° WNW 22:45:16 10° N
Cosmos 2341 Rocket 4.0 22:35:05 10° N 22:41:29 82° E 22:45:04 28° SSE
SL-16 R/B 4.4 22:38:04 10° N 22:42:19 21° NE 22:46:32 10° E
Cosmos 1408 2.6 22:43:33 47° SE 22:44:13 58° E 22:47:37 10° NNE
Terra 4.2 22:43:14 10° WSW 22:45:24 13° W 22:47:35 10° WNW
Cosmos 1825 3.3 22:46:54 27° ESE 22:47:39 30° E 22:50:58 10° NNE
ALOS 2 2.6 22:46:37 36° SSE 22:48:25 83° ENE 22:52:50 10° NNW
Cosmos 2366 rocket 4.2 22:42:54 10° N 22:49:12 68° E 22:52:47 27° SSE
Cosmos 1900 4.5 22:45:28 10° NW 22:50:40 76° NE 22:53:35 26° SE
SL-8 R/B 3.6 22:46:16 10° W 22:51:06 84° SSW 22:55:57 10° ESE
Cosmos 1726 Rocket 3.9 22:47:41 10° NNW 22:51:55 55° W 22:53:36 32° SSW
USA 267 3.9 22:46:03 10° NE 22:52:25 57° NNW 22:58:47 10° W
Cosmos 1980 Rocket 2.5 22:50:01 10° NNW 22:55:42 65° ENE 22:59:14 24° SE
RESURS DK-1 2.8 22:53:57 10° NW 22:57:57 49° WSW 22:59:03 38° SSW
Cosmos 1697 Rocket 2.8 22:54:29 10° NNW 23:00:04 66° WSW 23:02:42 32° S
Cosmos 1331 Rocket 4.1 22:57:21 23° SSW 23:00:41 74° WNW 23:06:02 10° NNE
Cosmos 1452 Rocket 4.4 22:57:19 12° SW 23:01:57 45° WNW 23:07:01 10° NNE
Spot 4 4.5 23:04:25 29° SSW 23:06:25 44° W 23:11:01 10° NNW
Cosmos 1892 2.5 23:06:34 47° SSW 23:07:34 86° W 23:11:21 10° N
Lacrosse 5 rocket 3.3 23:05:19 10° W 23:07:17 15° WSW 23:07:17 15° WSW
ERS-2 2.3 23:05:14 10° NNE 23:08:47 56° ESE 23:09:26 47° SE
ADEOS Rocket 3.4 23:05:35 28° S 23:09:41 79° WSW 23:17:16 10° NNW
USA 276 1.9 23:10:14 68° E 23:10:14 68° E 23:12:51 10° ENE
Cosmos 2084 Rocket 3.8 23:07:00 10° NW 23:10:49 54° NE 23:13:11 22° ESE
In-Cosmos 22 Rocket 4.2 23:08:21 32° S 23:11:04 74° E 23:16:37 10° NNE
Cosmos 2058 Rocket 3.4 23:10:52 10° NNW 23:15:10 54° W 23:16:43 35° SSW
Cosmos 1602 Rocket 4.2 23:15:24 32° SE 23:16:46 42° E 23:20:51 10° NNE
Cosmos 1959 Rocket 4.4 23:12:07 10° N 23:18:15 80° W 23:21:25 30° S
Cosmos 2181 Rocket 3.9 23:15:18 29° S 23:18:38 86° W 23:24:52 10° N
GP-B 4.5 23:16:57 10° NNW 23:20:51 31° WNW 23:23:05 20° SW
Cosmos 1302 Rocket 3.9 23:21:10 32° SSW 23:23:41 89° ESE 23:28:55 10° NNE
Cosmos 2278 4.0 23:18:01 10° NNW 23:23:44 65° ENE 23:27:31 22° SE
Cosmos 192 4.3 23:21:56 31° SSW 23:24:16 82° WNW 23:29:13 10° NNE
Cosmos 2322 Rocket 4.0 23:19:47 10° NNW 23:24:38 28° NE 23:29:28 10° ESE
USA 234 4.3 23:26:12 23° SSW 23:28:01 26° SW 23:33:24 10° WNW
ATLAS 2AS CENTAUR R/B 4.2 23:25:13 10° WNW 23:29:44 19° WSW 23:32:16 15° SW
Cosmos 1833 Rocket 3.3 23:26:16 16° SW 23:30:41 52° WNW 23:36:13 10° NNE
CZ-2D R/B 4.4 23:34:03 10° ENE 23:35:34 11° E 23:37:04 10° ESE
Geosat 4.3 23:35:57 21° SE 23:39:17 66° ENE 23:44:17 10° NNW
BREEZE-M DEB (TANK) 4.1 23:36:53 10° WNW 23:40:35 89° SSW 23:56:44 10° ESE
Okean 1-7 Rocket 3.8 23:39:48 35° SSW 23:41:32 63° WNW 23:45:59 10° N
Cosmos 1626 Rocket 3.6 23:42:03 38° SSW 23:43:37 69° W 23:47:57 10° N
Cosmos 2082 Rocket 2.2 23:41:32 28° SSW 23:44:39 87° WNW 23:50:24 10° NNE
Cosmos 1821 Rocket 4.0 23:41:09 10° N 23:47:30 88° E 23:50:56 29° S
Cosmos 1869 3.9 23:46:21 10° NNW 23:50:01 43° W 23:50:55 36° SW
ATLAS 5 CENTAUR R/B 2.4 23:51:04 26° SE 23:51:19 26° ESE 23:54:42 10° ENE
Cosmos 1238 4.4 23:52:31 50° ESE 23:52:48 52° E 23:55:46 10° NNE
Cosmos 1825 Rocket 4.1 23:53:55 31° SE 23:55:30 46° E 23:59:39 10° NNE
